Back to catalog

AIRSAT-05

AliveScienceSSO
NORAD 65259·PAYLOAD·🇨🇳 China
This satellite name has not been confirmed by official sources yet.

Launched Aug 19, 2025 from Jiuquan Satellite Launch Center

Loading…

Next Passes (next 24 hours)

TLE

FreshSource: Space-Track

Epoch: Sep 14, 2026, 08:38 UTC

1 65259U 25180A   26257.36017205  .00003161  00000-0  12879-3 0  9990
2 65259  97.5307  26.5208 0011540   9.6976 350.4482 15.25180574 59379

Track AIRSAT-05 in real time with AllMySat

Download on the App Store